| time (UTC) | temp F | wind direction | speed MPH | gust MPH | rain 1hr in | rain 24hr in | rain mn in | humidity % | barometer mb |
| 20260904073047 | 81 | 237 | 0.0 | 0.0 | 0.00 | 0.00 | 0.00 | 71 | 1007.1 |
| 20260904071540 | 81 | 237 | 0.0 | 0.0 | 0.00 | 0.00 | 0.00 | 70 | 1007.1 |
| 20260904070039 | 82 | 237 | 0.0 | 3.0 | 0.00 | 0.00 | 0.00 | 69 | 1007.1 |
| 20260904064538 | 82 | 237 | 1.0 | 3.0 | 0.00 | 0.00 | 0.00 | 68 | 1007.2 |
| 20260904063039 | 82 | 240 | 0.0 | 3.0 | 0.00 | 0.00 | 0.00 | 68 | 1007.2 |
| 20260904061537 | 82 | 241 | 2.0 | 4.0 | 0.00 | 0.00 | 0.00 | 68 | 1007.2 |
| 20260904060052 | 82 | 146 | 0.0 | 2.0 | 0.00 | 0.00 | 0.00 | 69 | 1007.3 |
| 20260904054545 | 81 | 145 | 0.0 | 3.0 | 0.00 | 0.00 | 0.00 | 70 | 1007.2 |
| 20260904053039 | 80 | 145 | 0.0 | 2.0 | 0.00 | 0.00 | 0.00 | 73 | 1007.2 |
| 20260904051529 | 80 | 145 | 0.0 | 1.0 | 0.00 | 0.00 | 0.00 | 74 | 1007.1 |
| 20260904050035 | 80 | 145 | 0.0 | 1.0 | 0.00 | 0.00 | 0.00 | 74 | 1007.0 |
| 20260904044526 | 81 | 145 | 0.0 | 1.0 | 0.00 | 0.00 | 0.00 | 73 | 1006.9 |
| 20260904043039 | 81 | 145 | 0.0 | 0.0 | 0.00 | 0.00 | 0.00 | 71 | 1006.9 |
| 20260904041527 | 82 | 145 | 0.0 | 0.0 | 0.00 | 0.00 | 0.00 | 71 | 1006.7 |
| 20260904040034 | 83 | 145 | 0.0 | 2.0 | 0.00 | 0.00 | 0.00 | 69 | 1006.7 |
| 20260904034524 | 83 | 145 | 0.0 | 0.0 | 0.00 | 0.00 | 0.00 | 68 | 1006.7 |
| 20260904033026 | 83 | 145 | 0.0 | 1.0 | 0.00 | 0.00 | 0.00 | 68 | 1006.8 |
| 20260904031523 | 83 | 145 | 0.0 | 2.0 | 0.00 | 0.00 | 0.00 | 68 | 1006.8 |
| 20260904030023 | 83 | 145 | 0.0 | 1.0 | 0.00 | 0.00 | 0.00 | 71 | 1006.6 |
| 20260904024533 | 83 | 145 | 0.0 | 1.0 | 0.00 | 0.00 | 0.00 | 71 | 1006.4 |
| 20260904023022 | 83 | 145 | 0.0 | 0.0 | 0.00 | 0.00 | 0.00 | 71 | 1006.3 |
| 20260904021522 | 84 | 145 | 0.0 | 0.0 | 0.00 | 0.00 | 0.00 | 69 | 1006.3 |
| 20260904020022 | 85 | 145 | 0.0 | 0.0 | 0.00 | 0.00 | 0.00 | 68 | 1006.1 |
| 20260904014527 | 86 | 145 | 0.0 | 0.0 | 0.00 | 0.00 | 0.00 | 65 | 1006.0 |
| 20260904013020 | 88 | 145 | 0.0 | 0.0 | 0.00 | 0.00 | 0.00 | 62 | 1005.8 |
| 20260904011520 | 89 | 145 | 0.0 | 0.0 | 0.00 | 0.00 | 0.00 | 58 | 1005.5 |
| 20260904010020 | 90 | 146 | 0.0 | 1.0 | 0.00 | 0.00 | 0.00 | 56 | 1005.5 |
| 20260904004519 | 91 | 146 | 0.0 | 3.0 | 0.00 | 0.00 | 0.00 | 54 | 1005.3 |
| 20260904003021 | 93 | 174 | 0.0 | 1.0 | 0.00 | 0.00 | 0.00 | 52 | 1005.3 |
| 20260904001518 | 94 | 130 | 0.0 | 2.0 | 0.00 | 0.00 | 0.00 | 50 | 1005.3 |
| 20260904000019 | 95 | 133 | 2.0 | 5.0 | 0.00 | 0.00 | 0.00 | 49 | 1005.2 |
| 20260903234528 | 96 | 143 | 1.0 | 4.0 | 0.00 | 0.00 | 0.00 | 48 | 1005.2 |
| 20260903233028 | 96 | 122 | 0.0 | 8.0 | 0.00 | 0.00 | 0.00 | 48 | 1005.2 |
| 20260903231517 | 97 | 138 | 0.0 | 5.0 | 0.00 | 0.00 | 0.00 | 47 | 1005.2 |
| 20260903230018 | 97 | 146 | 1.0 | 8.0 | 0.00 | 0.00 | 0.00 | 46 | 1005.2 |
| 20260903224514 | 97 | 107 | 4.0 | 8.0 | 0.00 | 0.00 | 0.00 | 45 | 1005.3 |
| 20260903223014 | 98 | 108 | 3.0 | 8.0 | 0.00 | 0.00 | 0.00 | 46 | 1005.4 |
| 20260903221514 | 97 | 99 | 1.0 | 9.0 | 0.00 | 0.00 | 0.00 | 46 | 1005.4 |
| 20260903220016 | 97 | 116 | 2.0 | 11.0 | 0.00 | 0.00 | 0.00 | 46 | 1005.3 |
| 20260903214523 | 98 | 250 | 4.0 | 14.0 | 0.00 | 0.00 | 0.00 | 48 | 1005.4 |
| 20260903213010 | 97 | 169 | 4.0 | 8.0 | 0.00 | 0.00 | 0.00 | 47 | 1005.5 |
| 20260903211508 | 97 | 187 | 4.0 | 11.0 | 0.00 | 0.00 | 0.00 | 47 | 1005.6 |
| 20260903210014 | 97 | 196 | 3.0 | 14.0 | 0.00 | 0.00 | 0.00 | 46 | 1005.7 |
| 20260903204506 | 97 | 187 | 2.0 | 11.0 | 0.00 | 0.00 | 0.00 | 49 | 1005.8 |
| 20260903203004 | 96 | 226 | 4.0 | 13.0 | 0.00 | 0.00 | 0.00 | 48 | 1006.1 |
| 20260903201503 | 97 | 189 | 1.0 | 10.0 | 0.00 | 0.00 | 0.00 | 48 | 1006.3 |
| 20260903200001 | 97 | 81 | 2.0 | 12.0 | 0.00 | 0.00 | 0.00 | 48 | 1006.4 |
| 20260903194558 | 96 | 145 | 3.0 | 9.0 | 0.00 | 0.00 | 0.00 | 48 | 1006.7 |
| 20260903193105 | 96 | 241 | 4.0 | 12.0 | 0.00 | 0.00 | 0.00 | 49 | 1006.8 |
| 20260903191555 | 96 | 167 | 4.0 | 13.0 | 0.00 | 0.00 | 0.00 | 48 | 1007.0 |
| 20260903190052 | 95 | 95 | 7.0 | 17.0 | 0.00 | 0.00 | 0.00 | 48 | 1007.0 |
| 20260903184557 | 94 | 209 | 4.0 | 16.0 | 0.00 | 0.00 | 0.00 | 51 | 1007.1 |
| 20260903183048 | 94 | 156 | 4.0 | 13.0 | 0.00 | 0.00 | 0.00 | 50 | 1007.2 |
| 20260903181545 | 93 | 73 | 6.0 | 14.0 | 0.00 | 0.00 | 0.00 | 52 | 1007.3 |
| 20260903180042 | 93 | 218 | 5.0 | 10.0 | 0.00 | 0.00 | 0.00 | 53 | 1007.7 |
| 20260903174541 | 93 | 179 | 4.0 | 10.0 | 0.00 | 0.00 | 0.00 | 53 | 1007.7 |
| 20260903173040 | 92 | 214 | 4.0 | 11.0 | 0.00 | 0.00 | 0.00 | 54 | 1007.9 |
| 20260903171538 | 92 | 90 | 2.0 | 11.0 | 0.00 | 0.00 | 0.00 | 57 | 1008.0 |
| 20260903170036 | 92 | 164 | 4.0 | 13.0 | 0.00 | 0.00 | 0.00 | 56 | 1008.2 |
| 20260903164535 | 91 | 194 | 4.0 | 10.0 | 0.00 | 0.00 | 0.00 | 58 | 1008.2 |
| 20260903163031 | 90 | 172 | 2.0 | 12.0 | 0.00 | 0.00 | 0.00 | 59 | 1008.3 |
| 20260903161529 | 90 | 91 | 2.0 | 12.0 | 0.00 | 0.00 | 0.00 | 61 | 1008.4 |
| 20260903160027 | 89 | 247 | 5.0 | 12.0 | 0.00 | 0.00 | 0.00 | 60 | 1008.4 |
| 20260903154524 | 88 | 223 | 4.0 | 11.0 | 0.00 | 0.00 | 0.00 | 61 | 1008.5 |
| 20260903153020 | 87 | 208 | 4.0 | 10.0 | 0.00 | 0.00 | 0.00 | 63 | 1008.6 |
| 20260903151519 | 86 | 159 | 3.0 | 11.0 | 0.00 | 0.00 | 0.00 | 64 | 1008.7 |
| 20260903150017 | 85 | 181 | 4.0 | 13.0 | 0.00 | 0.00 | 0.00 | 66 | 1008.6 |
| 20260903144514 | 84 | 214 | 5.0 | 11.0 | 0.00 | 0.00 | 0.00 | 67 | 1008.6 |
| 20260903143011 | 84 | 218 | 3.0 | 12.0 | 0.00 | 0.00 | 0.00 | 68 | 1008.7 |
| 20260903141512 | 83 | 238 | 4.0 | 11.0 | 0.00 | 0.00 | 0.00 | 69 | 1008.7 |
| 20260903140023 | 82 | 204 | 4.0 | 11.0 | 0.00 | 0.00 | 0.00 | 69 | 1008.6 |
| 20260903134508 | 82 | 166 | 3.0 | 8.0 | 0.00 | 0.00 | 0.00 | 69 | 1008.6 |
| 20260903133007 | 81 | 202 | 2.0 | 8.0 | 0.00 | 0.00 | 0.00 | 71 | 1008.7 |
| 20260903131509 | 81 | 193 | 2.0 | 6.0 | 0.00 | 0.00 | 0.00 | 71 | 1008.8 |
| 20260903130005 | 80 | 212 | 3.0 | 8.0 | 0.00 | 0.00 | 0.00 | 71 | 1008.6 |
| 20260903124504 | 79 | 177 | 2.0 | 6.0 | 0.00 | 0.00 | 0.00 | 71 | 1008.7 |
| 20260903123004 | 79 | 251 | 2.0 | 7.0 | 0.00 | 0.00 | 0.00 | 72 | 1008.5 |
| 20260903121503 | 79 | 247 | 1.0 | 6.0 | 0.00 | 0.00 | 0.00 | 72 | 1008.4 |
| 20260903120002 | 79 | 170 | 1.0 | 4.0 | 0.00 | 0.00 | 0.00 | 71 | 1008.3 |
| 20260903114600 | 79 | 194 | 0.0 | 8.0 | 0.00 | 0.00 | 0.00 | 71 | 1008.1 |
| 20260903113100 | 79 | 214 | 1.0 | 7.0 | 0.00 | 0.00 | 0.00 | 70 | 1008.0 |
| 20260903111602 | 79 | 140 | 3.0 | 7.0 | 0.00 | 0.00 | 0.00 | 70 | 1007.9 |
| 20260903110056 | 80 | 227 | 2.0 | 7.0 | 0.00 | 0.00 | 0.00 | 69 | 1007.9 |
| 20260903104559 | 80 | 210 | 3.0 | 8.0 | 0.00 | 0.00 | 0.00 | 68 | 1007.8 |
| 20260903103055 | 81 | 192 | 2.0 | 7.0 | 0.00 | 0.00 | 0.00 | 67 | 1007.7 |
| 20260903101556 | 81 | 142 | 1.0 | 6.0 | 0.00 | 0.00 | 0.00 | 67 | 1007.6 |
| 20260903100055 | 80 | 216 | 1.0 | 7.0 | 0.00 | 0.00 | 0.00 | 68 | 1007.5 |
| 20260903094605 | 80 | 114 | 0.0 | 3.0 | 0.00 | 0.00 | 0.00 | 68 | 1007.6 |
| 20260903093055 | 80 | 112 | 1.0 | 3.0 | 0.00 | 0.00 | 0.00 | 68 | 1007.6 |
| 20260903091552 | 80 | 85 | 0.0 | 3.0 | 0.00 | 0.00 | 0.00 | 67 | 1007.6 |
| 20260903084551 | 78 | 138 | 0.0 | 3.0 | 0.00 | 0.00 | 0.00 | 71 | 1007.7 |
| 20260903083059 | 78 | 131 | 0.0 | 0.0 | 0.00 | 0.00 | 0.00 | 73 | 1007.7 |
| 20260903081548 | 78 | 131 | 0.0 | 0.0 | 0.00 | 0.00 | 0.00 | 72 | 1007.5 |
| 20260903080045 | 79 | 131 | 0.0 | 0.0 | 0.00 | 0.00 | 0.00 | 70 | 1007.5 |
| 20260903074543 | 80 | 131 | 0.0 | 0.0 | 0.00 | 0.00 | 0.00 | 68 | 1007.5 |